Hourly Data Report for September 24, 2017

All times are specified in Local Standard Time (LST). Add 1 hour to adjust for Daylight Saving Time where and when it is observed.

NAPPAN AUTO
NOVA SCOTIA

45°45'34.400" N
64°14'29.200" W
19.80 m
8203702
71311
XNP

Download Data

Hourly Data (September 2017)
Hourly Data Report for September 24, 2017
Temp Definition
°C
Dew Point Temp Definition
°C
Rel Hum Definition
%
Wind Dir Definition
10's deg

Wind Spd Definition
km/h
Visibility Definition
km
Stn Press Definition
kPa
Hmdx Definition


Wind Chill Definition


Weather Definition


TIME
00:00 12.6 12.2 98 33 5   101.45     LegendNANA
01:00 12.3 11.8 96   0   101.50     LegendNANA
02:00 12.5 11.6 95 6 3   101.46     LegendNANA
03:00 10.9 10.6 98 11 1   101.49     LegendNANA
04:00 9.6 9.1 97 27 1   101.49     LegendNANA
05:00 10.4 10.0 98 0 1   101.51     LegendNANA
06:00 9.6 9.2 98 19 5   101.51     LegendNANA
07:00 10.6 10.2 98 20 6   101.54     LegendNANA
08:00 12.6 11.5 93 22 6   101.60     LegendNANA
09:00 16.8 12.7 77 19 12   101.47     LegendNANA
10:00 19.8 14.4 71 19 11   101.45     LegendNANA
11:00 22.3 15.8 67 19 13   101.39 27   LegendNANA
12:00 24.5 16.4 60 21 14   101.31 29   LegendNANA
13:00 25.5 17.5 61 20 11   101.25 31   LegendNANA
14:00 24.4 17.8 67 27 11   101.27 30   LegendNANA
15:00 25.4 17.3 61 24 15   101.21 31   LegendNANA
16:00 24.1 16.9 64 24 13   101.19 29   LegendNANA
17:00 22.5 15.4 64 23 9   101.25 27   LegendNANA
18:00 21.3 14.0 63 22 22   101.28 25   LegendNANA
19:00 21.3 13.8 62 18 9   101.34 25   LegendNANA
20:00 17.7 15.1 85 19 8   101.42     LegendNANA
21:00 17.1 14.7 86 2 3   101.47     LegendNANA
22:00 16.2 14.9 92 0 1   101.50     LegendNANA
23:00 15.4 14.3 93 18 2   101.51     LegendNANA

Notes on Data Quality.

Legend

  • E = Estimated
  • M = Missing
  • NA = Not Available
  • ‡ = Partner data that is not subject to review by the National Climate Archives
Date modified: